This is the latest recevied weather packets stored in our database for station/object OE6PLD-13. If no packets are shown the sender has not sent any weather packets the latest 10 day(s).
| Time | Temp. | Humidity | Pressure | Rain* | Wind** | Luminosity | Snow |
|---|---|---|---|---|---|---|---|
| 1777416569 | 13.89° C | 49% | 1015 hPa | 0.76 mm | - | 0 W/m² | - |
| 1777416386 | 13.89° C | 49% | 1014.8 hPa | 0.76 mm | - | 0 W/m² | - |
| 1777416203 | 13.89° C | 49% | 1014.8 hPa | 0.76 mm | - | 0 W/m² | - |
| 1777416019 | 13.89° C | 51% | 1014.8 hPa | 0.76 mm | - | 0 W/m² | - |
| 1777415836 | 13.89° C | 51% | 1014.8 hPa | 0.76 mm | - | 0 W/m² | - |
| 1777415653 | 13.89° C | 50% | 1015 hPa | 0.76 mm | - | 0 W/m² | - |
| 1777415469 | 13.89° C | 48% | 1014.6 hPa | 0.76 mm | - | 0 W/m² | - |
| 1777415286 | 13.89° C | 50% | 1014.9 hPa | 0.76 mm | - | 0 W/m² | - |
| 1777415102 | 13.89° C | 49% | 1014.9 hPa | 0.76 mm | - | 0 W/m² | - |
| 1777414919 | 13.89° C | 52% | 1014.7 hPa | 0.76 mm | - | 0 W/m² | - |
| 1777414736 | 13.89° C | 51% | 1014.7 hPa | 0.76 mm | - | 0 W/m² | - |
| 1777414552 | 13.33° C | 53% | 1014.8 hPa | 0.76 mm | - | 0 W/m² | - |
| 1777414369 | 13.33° C | 58% | 1014.8 hPa | 0.76 mm | - | 0 W/m² | - |
| 1777414186 | 13.33° C | 62% | 1014.8 hPa | 0.76 mm | - | 0 W/m² | - |
| 1777414002 | 12.78° C | 63% | 1014.6 hPa | 0.76 mm | - | 0 W/m² | - |
| 1777413819 | 12.78° C | 65% | 1014.9 hPa | 0.76 mm | - | 0 W/m² | - |
| 1777413636 | 12.78° C | 65% | 1014.9 hPa | 0.76 mm | - | 0 W/m² | - |
| 1777413452 | 12.78° C | 69% | 1014.7 hPa | 0.76 mm | - | 0 W/m² | - |
| 1777413269 | 12.78° C | 69% | 1014.8 hPa | 0.76 mm | - | 0 W/m² | - |
| 1777413086 | 12.78° C | 69% | 1014.6 hPa | 0.76 mm | - | 0 W/m² | - |
| 1777412902 | 12.78° C | 68% | 1014.8 hPa | 0.76 mm | - | 0 W/m² | - |
| 1777412719 | 12.78° C | 69% | 1014.6 hPa | 0.76 mm | - | 0 W/m² | - |
| 1777412535 | 12.78° C | 68% | 1014.6 hPa | 0.76 mm | - | 0 W/m² | - |
| 1777412352 | 12.78° C | 68% | 1014.4 hPa | 0.76 mm | - | 0 W/m² | - |
| 1777412169 | 12.78° C | 68% | 1014.6 hPa | 0.76 mm | - | 0 W/m² | - |
* Rain latest hour (hover to see other rain measurements)
** Current wind speed in m/s (hover to see current wind gust speed)